Simultaneous Nadir Overpasses (SNOs) Predictions

Prediction of SNOs between GOES-16 and NPP Satellite Orbit:

Table of predicted SNOs for the next 14.0 days since TLE Epoch: 11/11/2017
Index Date Time (GOES-16) GOES-16 Lat,Lon NPP Lat,Lon Distance(km) Time Diff (sec)
1 11/11/2017 19:24:16 0.00, -89.30 -0.19, -90.07 87.92 80
2 11/12/2017 19:08:11 0.00, -89.31 0.84, -85.54 429.00 80
3 11/14/2017 07:29:59 -0.00, -89.30 0.33, -90.81 172.84 80
4 11/15/2017 07:08:34 -0.00, -89.30 -0.70, -86.29 344.17 80
5 11/16/2017 19:30:30 0.00, -89.33 -0.48, -91.60 257.15 80
6 11/17/2017 19:14:25 0.00, -89.34 0.50, -87.06 260.30 80
7 11/19/2017 07:36:12 -0.01, -89.34 0.67, -92.33 340.53 80
8 11/20/2017 07:14:48 -0.01, -89.35 -0.37, -87.80 176.78 80
9 11/21/2017 19:36:44 0.01, -89.38 -0.81, -93.11 424.42 80
10 11/22/2017 19:20:39 0.01, -89.40 0.18, -88.57 93.35 80




NCC Satellite Simultaneous Nadir Overpasses (SNOs) Prediction Service
